Flight Track Log - Related Links

Times and Time Zones

All times are in EST time to prevent confusion due to time zone crossing. See the CHQ5352 flight status page for this flight to view local times or setup timezone preferences in your user account.

Time Position Orientation Groundspeed Altitude Reporting Facility
EST Latitude Longitude Course Direction KTS MPH feet Rate Location/Type
11:45AM 40.6414 -89.6586 North 154 177 2,600  Level Chicago Center
11:46AM 40.6692 -89.6158 49° Northeast 199 229 4,800 2,195 Climbing Chicago Center
11:47AM 40.7489 -89.6089 North 228 262 7,100 2,419 Climbing Chicago Center
11:48AM 40.8946 -89.6333 North  Level FlightAware Approximate
11:48AM 40.8236 -89.6047 North 266 306 9,800  Level Chicago Center
11:49AM 40.9559 -89.6194 11° North  Level FlightAware Approximate
11:49AM 40.8978 -89.5731 18° North 299 344 11,200  Level Chicago Center
11:50AM 41.0173 -89.6065 North  Level FlightAware Approximate
11:50AM 40.9664 -89.4742 47° Northeast 355 409 11,800  Level Chicago Center
11:51AM 41.0414 -89.3675 47° Northeast 386 444 12,800 484 Climbing Chicago Center
11:52AM 41.1325 -89.2417 46° Northeast 394 453 12,800 -390 Level Chicago Center
11:53AM 41.2108 -89.1328 46° Northeast 395 455 12,000 -439 Descending Chicago Center
11:54AM 41.2836 -89.0275 47° Northeast 390 449 11,900 -48 Descending Chicago Center
11:55AM 41.3553 -88.9264 47° Northeast 378 435 11,900 48 Level Chicago Center
11:56AM 41.4250 -88.8275 47° Northeast 342 394 12,000 48 Climbing Chicago Center
11:57AM 41.4872 -88.7422 46° Northeast 322 371 12,000 48 Level Chicago Center
11:58AM 41.5378 -88.6439 55° Northeast 325 374 12,100 48 Climbing Chicago Center
11:59AM 41.5861 -88.5322 60° Northeast 323 372 12,100 -439 Level Chicago Center
12:01PM 41.6472 -88.4503 45° Northeast 311 358 11,200 -1,220 Descending Chicago Center
12:02PM 41.7081 -88.3619 47° Northeast 301 346 9,600 -1,500 Descending Chicago Center
12:03PM 41.7775 -88.3378 15° North 267 307 8,100 -1,258 Descending Chicago Center
12:04PM 41.8486 -88.3422 357° North 255 293 7,000 -919 Descending Chicago Center
12:05PM 41.8789 -88.4250 296° West 264 304 6,200 -919 Descending Chicago Center
12:06PM 41.9217 -88.4703 322° Northwest 211 243 5,100 -581 Descending Chicago Center
12:07PM 41.9558 -88.4281 43° Northeast 173 199 5,000 -97 Descending Chicago Center
12:08PM 41.9661 -88.3647 78° East 168 193 4,900  Descending Chicago Center
12:09PM 41.9672 -88.3036 89° East 165 190 5,000  Climbing Chicago Center
12:10PM 41.9675 -88.2397 90° East 160 184 4,900 -195 Descending Chicago Center
12:11PM 41.9672 -88.1792 90° East 162 186 4,600 -581 Descending Chicago Center
12:12PM 41.9678 -88.1186 89° East 161 185 3,700 -919 Descending Chicago Center
12:13PM 41.9681 -88.0600 90° East 148 170 2,700 -871 Descending Chicago Center
12:14PM 41.9678 -88.0094 90° East 138 159 1,900 -774 Descending Chicago Center
12:15PM 41.9681 -87.9603 90° East 125 144 1,100 -532 Descending Chicago Center
12:16PM 41.9678 -87.9136 90° East 127 146 800 -290 Descending Chicago Center

Login

Don't have an account? Register now (free) for customized features, flight alerts, and more!